GW1230 Weather Reports


Display with metric or nautical units.
time (UTC)temp
F
wind
direction
speed
MPH
gust
MPH
rain 1hr
in
rain 24hr
in
rain mn
in
humidity
%
barometer
mb
20260901071841 61 320 0.0 1.0 0.00 0.00 0.00 75 1008.4
20260901071339 61 294 0.0 0.0 0.00 0.00 0.00 76 1008.5
20260901070838 62 293 0.0 0.0 0.00 0.00 0.00 76 1008.7
20260901070335 61 297 0.0 0.0 0.00 0.00 0.00 77 1008.6
20260901065833 62 296 0.0 0.0 0.00 0.00 0.00 76 1008.5
20260901065329 62 305 0.0 0.0 0.00 0.00 0.00 76 1008.2
20260901064824 62 293 0.0 0.0 0.00 0.00 0.00 76 1008.5
20260901064321 63 295 0.0 0.0 0.00 0.00 0.00 75 1008.7
20260901063818 62 300 0.0 0.0 0.00 0.00 0.00 74 1008.5
20260901063314 63 293 0.0 0.0 0.00 0.00 0.00 74 1008.4
20260901062810 62 292 0.0 0.0 0.00 0.00 0.00 75 1008.5
20260901062309 63 309 0.0 0.0 0.00 0.00 0.00 75 1008.5
20260901061801 63 307 0.0 0.0 0.00 0.00 0.00 75 1008.7
20260901061301 63 308 0.0 0.0 0.00 0.00 0.00 74 1008.6
20260901060756 63 308 0.0 0.0 0.00 0.00 0.00 74 1008.5
20260901060252 63 308 0.0 0.0 0.00 0.00 0.00 74 1008.6
20260901055746 63 308 0.0 0.0 0.00 0.00 0.00 74 1008.4
20260901055243 64 322 0.0 0.0 0.00 0.00 0.00 74 1008.6
20260901054739 64 319 0.0 0.0 0.00 0.00 0.00 74 1008.5
20260901054236 64 298 0.0 0.0 0.00 0.00 0.00 74 1008.6
20260901053731 64 289 0.0 0.0 0.00 0.00 0.00 74 1008.7
20260901053226 64 312 0.0 0.0 0.00 0.00 0.00 73 1008.9
20260901052722 64 301 0.0 0.0 0.00 0.00 0.00 73 1008.9
20260901052218 64 343 0.0 0.0 0.00 0.00 0.00 74 1008.7
20260901051716 64 324 0.0 0.0 0.00 0.00 0.00 74 1008.6
20260901051211 64 296 0.0 0.0 0.00 0.00 0.00 73 1008.7
20260901050706 65 283 0.0 0.0 0.00 0.00 0.00 72 1008.7
20260901050201 65 270 0.0 0.0 0.00 0.00 0.00 73 1008.7
20260901045656 64 284 0.0 0.0 0.00 0.00 0.00 73 1008.9
20260901045151 64 302 0.0 0.0 0.00 0.00 0.00 73 1008.9
20260901044646 64 304 0.0 0.0 0.00 0.00 0.00 72 1008.7
20260901044143 64 300 0.0 0.0 0.00 0.00 0.00 72 1008.5
20260901043638 65 295 0.0 0.0 0.00 0.00 0.00 71 1008.7
20260901043134 65 293 0.0 0.0 0.00 0.00 0.00 71 1008.8
20260901042632 65 286 0.0 0.0 0.00 0.00 0.00 71 1008.6
20260901042128 65 289 0.0 0.0 0.00 0.00 0.00 71 1008.8
20260901041624 65 312 0.0 0.0 0.00 0.00 0.00 70 1008.6
20260901041119 65 321 0.0 0.0 0.00 0.00 0.00 70 1008.6
20260901040618 66 317 0.0 0.0 0.00 0.00 0.00 70 1008.5
20260901040112 66 323 1.0 2.0 0.00 0.00 0.00 69 1008.5
20260901035610 66 320 0.0 0.0 0.00 0.00 0.00 69 1008.5
20260901035109 66 308 0.0 0.0 0.00 0.00 0.00 69 1008.3
20260901034609 66 319 0.0 1.0 0.00 0.00 0.00 68 1008.5
20260901034103 66 15 3.0 5.0 0.00 0.00 0.00 68 1008.2
20260901033602 66 312 0.0 0.0 0.00 0.00 0.00 69 1008.5
20260901033057 66 323 3.0 6.0 0.00 0.00 0.00 69 1008.3
20260901032556 66 342 5.0 7.0 0.00 0.00 0.00 69 1008.3
20260901032051 66 346 4.0 5.0 0.00 0.00 0.00 69 1008.2
20260901031546 66 313 2.0 3.0 0.00 0.00 0.00 70 1008.3
20260901031043 66 306 1.0 2.0 0.00 0.00 0.00 70 1008.3
20260901030542 66 343 3.0 3.0 0.00 0.00 0.00 70 1008.2
20260901030037 66 302 1.0 1.0 0.00 0.00 0.00 70 1008.1
20260901025536 66 0 6.0 8.0 0.00 0.00 0.00 69 1008.1
20260901025031 66 315 3.0 5.0 0.00 0.00 0.00 69 1008.1
20260901024526 66 311 2.0 2.0 0.00 0.00 0.00 69 1008.3
20260901024025 67 320 5.0 6.0 0.00 0.00 0.00 69 1008.3
20260901023519 67 357 2.0 3.0 0.00 0.00 0.00 69 1008.0
20260901023014 67 313 4.0 6.0 0.00 0.00 0.00 68 1008.1
20260901022509 67 261 5.0 8.0 0.00 0.00 0.00 68 1008.2
20260901022004 68 289 3.0 5.0 0.00 0.00 0.00 68 1008.2
20260901021500 68 322 2.0 2.0 0.00 0.00 0.00 67 1008.3
20260901020955 68 314 3.0 5.0 0.00 0.00 0.00 67 1008.3
20260901020450 68 329 3.0 5.0 0.00 0.00 0.00 67 1008.3
20260901015949 68 347 4.0 5.0 0.00 0.00 0.00 67 1008.2
20260901015446 68 334 7.0 9.0 0.00 0.00 0.00 66 1008.4
20260901014945 68 0 5.0 7.0 0.00 0.00 0.00 66 1008.3
20260901014441 68 321 3.0 3.0 0.00 0.00 0.00 66 1008.3
20260901013936 68 324 4.0 7.0 0.00 0.00 0.00 66 1008.3
20260901013432 68 2 7.0 9.0 0.00 0.00 0.00 66 1008.3
20260901012928 68 10 4.0 6.0 0.00 0.00 0.00 66 1008.3
20260901012422 68 283 4.0 7.0 0.00 0.00 0.00 66 1008.2
20260901011918 68 335 4.0 6.0 0.00 0.00 0.00 67 1008.4
20260901011414 68 338 4.0 7.0 0.00 0.00 0.00 67 1008.5
20260901010912 69 0 3.0 5.0 0.00 0.00 0.00 66 1008.3
20260901010407 69 308 3.0 5.0 0.00 0.00 0.00 66 1008.5
20260901005906 69 319 4.0 7.0 0.00 0.00 0.00 66 1008.3
20260901005401 69 274 0.0 1.0 0.00 0.00 0.00 66 1008.4
20260901004856 69 310 3.0 6.0 0.00 0.00 0.00 66 1008.4
20260901004355 69 344 5.0 8.0 0.00 0.00 0.00 65 1008.3
20260901003850 70 336 6.0 8.0 0.00 0.00 0.00 64 1008.4
20260901003345 70 325 6.0 10.0 0.00 0.00 0.00 64 1008.3
20260901002843 69 340 4.0 5.0 0.00 0.00 0.00 64 1008.3
20260901002343 70 307 3.0 5.0 0.00 0.00 0.00 63 1008.5
20260901001838 70 331 5.0 8.0 0.00 0.00 0.00 64 1008.5
20260901001333 71 312 8.0 14.0 0.00 0.00 0.00 62 1008.6
20260901000828 72 32 6.0 9.0 0.00 0.00 0.00 59 1008.7
20260901000324 70 301 3.0 3.0 0.00 0.00 0.00 61 1008.7
20260831235822 70 341 4.0 6.0 0.00 0.00 0.00 62 1008.7
20260831235318 71 331 7.0 9.0 0.00 0.00 0.00 60 1008.8
20260831234813 71 346 2.0 5.0 0.00 0.00 0.00 60 1008.8
20260831234313 70 352 2.0 7.0 0.00 0.00 0.00 62 1008.8
20260831233808 71 301 2.0 3.0 0.00 0.00 0.00 61 1008.9
20260831233304 72 55 7.0 13.0 0.00 0.00 0.00 60 1009.2
20260831232758 73 339 0.0 3.0 0.00 0.00 0.00 58 1009.0
20260831232255 72 2 3.0 7.0 0.00 0.00 0.00 60 1009.0
20260831231750 72 279 8.0 11.0 0.00 0.00 0.00 61 1009.1
20260831231247 71 350 3.0 3.0 0.00 0.00 0.00 61 1009.2
20260831230742 70 357 7.0 9.0 0.00 0.00 0.00 63 1009.2
20260831230237 70 332 6.0 9.0 0.00 0.00 0.00 63 1009.1
20260831225736 71 355 1.0 2.0 0.00 0.00 0.00 62 1009.0
20260831225232 71 270 1.0 3.0 0.00 0.00 0.00 60 1009.2
20260831224726 72 338 4.0 7.0 0.00 0.00 0.00 60 1009.4
20260831224222 75 339 1.0 7.0 0.00 0.00 0.00 56 1009.3
20260831223717 74 5 0.0 0.0 0.00 0.00 0.00 58 1009.6
20260831223214 73 24 5.0 8.0 0.00 0.00 0.00 59 1009.6
20260831222709 73 9 7.0 9.0 0.00 0.00 0.00 60 1009.5
20260831222205 72 277 1.0 1.0 0.00 0.00 0.00 62 1009.7
20260831221700 72 14 9.0 13.0 0.00 0.00 0.00 61 1009.4
20260831221155 71 259 3.0 5.0 0.00 0.00 0.00 61 1009.7
20260831220650 71 17 3.0 5.0 0.00 0.00 0.00 63 1009.8
20260831220145 73 341 3.0 8.0 0.00 0.00 0.00 60 1009.5
20260831215640 74 312 0.0 0.0 0.00 0.00 0.00 60 1009.8
20260831215136 72 314 6.0 8.0 0.00 0.00 0.00 61 1010.0
20260831214633 71 351 6.0 11.0 0.00 0.00 0.00 61 1009.9
20260831214129 72 351 4.0 7.0 0.00 0.00 0.00 61 1010.1
20260831213626 72 292 3.0 5.0 0.00 0.00 0.00 60 1010.1
20260831213121 71 8 3.0 5.0 0.00 0.00 0.00 62 1010.3
20260831212617 70 290 7.0 9.0 0.00 0.00 0.00 64 1010.4
20260831212113 71 343 5.0 10.0 0.00 0.00 0.00 63 1010.1
20260831211612 71 332 7.0 9.0 0.00 0.00 0.00 62 1010.5
20260831211112 71 342 8.0 10.0 0.00 0.00 0.00 62 1010.5
20260831210607 71 291 2.0 5.0 0.00 0.00 0.00 62 1010.4
20260831210103 73 353 7.0 11.0 0.00 0.00 0.00 60 1010.7
20260831205602 72 331 5.0 7.0 0.00 0.00 0.00 61 1010.6
20260831205058 73 305 1.0 2.0 0.00 0.00 0.00 61 1010.6
20260831204553 71 299 4.0 6.0 0.00 0.00 0.00 62 1010.8
20260831204051 72 281 6.0 9.0 0.00 0.00 0.00 60 1010.8
20260831203546 70 307 1.0 1.0 0.00 0.00 0.00 64 1011.0
20260831203045 72 327 5.0 7.0 0.00 0.00 0.00 61 1010.8
20260831202544 71 277 2.0 6.0 0.00 0.00 0.00 61 1010.9
20260831202039 71 308 1.0 2.0 0.00 0.00 0.00 62 1011.1
20260831201538 70 334 4.0 6.0 0.00 0.00 0.00 64 1011.1
20260831201033 71 259 1.0 2.0 0.00 0.00 0.00 64 1011.3
20260831200529 70 266 5.0 7.0 0.00 0.00 0.00 63 1011.4
20260831200024 69 307 5.0 6.0 0.00 0.00 0.00 63 1011.3
20260831195519 70 333 5.0 9.0 0.00 0.00 0.00 62 1011.5
20260831195019 69 317 5.0 7.0 0.00 0.00 0.00 64 1011.5
20260831194509 70 314 2.0 2.0 0.00 0.00 0.00 63 1011.5
20260831194008 70 8 2.0 2.0 0.00 0.00 0.00 64 1011.8
20260831193504 68 317 2.0 2.0 0.00 0.00 0.00 68 1011.5
20260831192959 68 313 7.0 10.0 0.00 0.00 0.00 68 1011.6
20260831192454 69 316 7.0 9.0 0.00 0.00 0.00 66 1011.8
20260831191948 67 339 7.0 9.0 0.00 0.00 0.00 68 1012.0
20260831191445 66 340 5.0 8.0 0.00 0.00 0.00 70 1011.8
20260831190941 68 307 4.0 7.0 0.00 0.00 0.00 66 1012.0
20260831190436 68 316 2.0 7.0 0.00 0.00 0.00 69 1012.2
20260831185935 69 319 3.0 5.0 0.00 0.00 0.00 66 1012.2
20260831185431 68 314 5.0 7.0 0.00 0.00 0.00 68 1012.1
20260831184930 68 318 4.0 7.0 0.00 0.00 0.00 67 1012.4
20260831184425 69 318 6.0 10.0 0.00 0.00 0.00 65 1012.2
20260831183920 68 306 3.0 7.0 0.00 0.00 0.00 67 1012.4
20260831183420 69 297 7.0 8.0 0.00 0.00 0.00 68 1012.5
20260831182914 69 317 1.0 2.0 0.00 0.00 0.00 67 1012.6
20260831182409 68 282 3.0 5.0 0.00 0.00 0.00 69 1012.6
20260831181904 68 262 0.0 0.0 0.00 0.00 0.00 70 1012.6
20260831181359 67 335 5.0 7.0 0.00 0.00 0.00 71 1012.6
20260831180854 67 0 5.0 6.0 0.00 0.00 0.00 71 1012.7
20260831180348 66 283 3.0 5.0 0.00 0.00 0.00 74 1012.6
20260831175848 66 334 2.0 3.0 0.00 0.00 0.00 75 1012.8
20260831175344 65 325 4.0 5.0 0.00 0.00 0.00 75 1012.9
20260831174840 66 333 5.0 7.0 0.00 0.00 0.00 74 1013.0
20260831174336 65 308 1.0 1.0 0.00 0.00 0.00 77 1012.9
20260831173834 66 337 6.0 8.0 0.00 0.00 0.00 76 1012.9
20260831173328 64 314 2.0 3.0 0.00 0.00 0.00 78 1013.1
20260831172824 65 274 1.0 2.0 0.00 0.00 0.00 76 1013.1
20260831172319 66 308 3.0 3.0 0.00 0.00 0.00 75 1013.1
20260831171819 64 325 1.0 2.0 0.00 0.00 0.00 77 1013.2
20260831171315 64 300 0.0 1.0 0.00 0.00 0.00 77 1012.9
20260831170812 65 340 3.0 5.0 0.00 0.00 0.00 76 1013.2
20260831170308 65 316 4.0 6.0 0.00 0.00 0.00 76 1013.1
20260831165804 66 289 3.0 5.0 0.00 0.00 0.00 75 1013.3
20260831165300 66 70 1.0 2.0 0.00 0.00 0.00 73 1013.2
20260831164756 65 340 3.0 3.0 0.00 0.00 0.00 76 1013.2
20260831164252 64 328 2.0 5.0 0.00 0.00 0.00 78 1013.3
20260831163747 63 356 4.0 5.0 0.00 0.00 0.00 78 1013.1
20260831163243 65 290 3.0 5.0 0.00 0.00 0.00 76 1013.3
20260831162741 65 305 1.0 1.0 0.00 0.00 0.00 76 1013.5
20260831162236 65 321 0.0 0.0 0.00 0.00 0.00 75 1013.5
20260831161730 64 17 4.0 5.0 0.00 0.00 0.00 75 1013.4
20260831161227 64 353 5.0 6.0 0.00 0.00 0.00 74 1013.7
20260831160726 65 21 1.0 1.0 0.00 0.00 0.00 75 1013.7
20260831160221 64 76 2.0 3.0 0.00 0.00 0.00 76 1013.7
20260831155721 64 11 1.0 1.0 0.00 0.00 0.00 77 1013.5
20260831155217 64 318 1.0 2.0 0.00 0.00 0.00 77 1013.9
20260831154713 63 37 3.0 5.0 0.00 0.00 0.00 78 1014.0
20260831154209 63 14 4.0 5.0 0.00 0.00 0.00 77 1014.1
20260831153707 63 319 2.0 3.0 0.00 0.00 0.00 78 1014.1
20260831153203 62 7 4.0 5.0 0.00 0.00 0.00 79 1014.1
20260831152659 62 20 3.0 6.0 0.00 0.00 0.00 80 1014.0
20260831152155 62 11 5.0 7.0 0.00 0.00 0.00 80 1014.0
20260831151654 62 356 3.0 6.0 0.00 0.00 0.00 80 1014.0
20260831151149 61 5 4.0 5.0 0.00 0.00 0.00 81 1014.1
20260831150644 61 1 2.0 2.0 0.00 0.00 0.00 83 1014.0
20260831150139 60 1 0.0 0.0 0.00 0.00 0.00 84 1013.9
20260831145633 60 6 3.0 3.0 0.00 0.00 0.00 85 1014.3
20260831145129 59 338 1.0 1.0 0.00 0.00 0.00 86 1014.0
20260831144625 59 9 3.0 5.0 0.00 0.00 0.00 86 1014.1
20260831144121 59 19 0.0 1.0 0.00 0.00 0.00 87 1014.1
20260831143620 58 5 1.0 1.0 0.00 0.00 0.00 88 1014.2
20260831143115 58 9 3.0 3.0 0.00 0.00 0.00 88 1014.1
20260831142612 58 324 0.0 0.0 0.00 0.00 0.00 90 1014.2
20260831142107 58 328 0.0 0.0 0.00 0.00 0.00 90 1014.1
20260831141605 57 356 1.0 2.0 0.00 0.00 0.00 91 1014.2
20260831141101 57 330 0.0 1.0 0.00 0.00 0.00 92 1014.1
20260831140600 57 334 0.0 0.0 0.00 0.00 0.00 92 1014.1
20260831140055 56 344 3.0 3.0 0.00 0.00 0.00 92 1014.1
20260831135553 56 331 0.0 0.0 0.00 0.00 0.00 92 1014.0
20260831135049 56 328 0.0 0.0 0.00 0.00 0.00 92 1014.1
20260831134544 56 341 0.0 0.0 0.00 0.00 0.00 92 1014.1
20260831134039 56 327 0.0 1.0 0.00 0.00 0.00 92 1013.7
20260831133538 56 3 1.0 2.0 0.00 0.00 0.00 92 1014.0
20260831133033 56 322 0.0 0.0 0.00 0.00 0.00 92 1014.0
20260831132530 56 314 0.0 0.0 0.00 0.00 0.00 92 1013.9
20260831132028 56 328 0.0 0.0 0.00 0.00 0.00 92 1014.0
20260831131523 56 341 1.0 1.0 0.00 0.00 0.00 92 1014.0
20260831131019 56 5 1.0 1.0 0.00 0.00 0.00 92 1014.1
20260831130514 56 338 0.0 1.0 0.00 0.00 0.00 92 1014.0
20260831130010 56 344 3.0 5.0 0.00 0.00 0.00 92 1014.2
20260831125503 56 343 1.0 2.0 0.00 0.00 0.00 93 1014.2
20260831124959 56 344 2.0 2.0 0.00 0.00 0.00 93 1014.1
20260831124454 56 332 1.0 1.0 0.00 0.00 0.00 93 1014.0
20260831123950 56 321 0.0 0.0 0.00 0.00 0.00 93 1014.3
20260831123449 56 4 2.0 2.0 0.00 0.00 0.00 93 1014.2
20260831122943 56 323 0.0 0.0 0.00 0.00 0.00 93 1014.2
20260831122439 56 333 1.0 1.0 0.00 0.00 0.00 93 1014.3
20260831121934 57 331 2.0 2.0 0.00 0.00 0.00 93 1014.2
20260831121430 57 325 1.0 1.0 0.00 0.00 0.00 93 1014.6
20260831120925 57 355 1.0 2.0 0.00 0.00 0.00 93 1014.5
20260831120420 57 342 3.0 3.0 0.00 0.00 0.00 92 1014.4
20260831115920 57 328 0.0 0.0 0.00 0.00 0.00 92 1014.3
20260831115416 57 15 3.0 3.0 0.00 0.00 0.00 92 1014.4
20260831114915 57 4 3.0 3.0 0.00 0.00 0.00 92 1014.6
20260831114414 57 30 3.0 5.0 0.00 0.00 0.00 92 1014.5
20260831113911 57 9 5.0 7.0 0.00 0.00 0.00 92 1014.7
20260831113410 57 320 1.0 1.0 0.00 0.00 0.00 92 1014.8
20260831112905 57 348 2.0 2.0 0.00 0.00 0.00 92 1014.8
20260831112400 57 358 5.0 7.0 0.00 0.00 0.00 92 1014.7
20260831111855 57 14 2.0 3.0 0.00 0.00 0.00 91 1014.7
20260831111351 57 337 1.0 2.0 0.00 0.00 0.00 91 1014.8
20260831110847 57 3 1.0 2.0 0.00 0.00 0.00 91 1015.0
20260831110346 57 6 1.0 2.0 0.00 0.00 0.00 91 1014.9
20260831105845 57 333 2.0 2.0 0.00 0.00 0.00 91 1014.8
20260831105341 57 355 1.0 3.0 0.00 0.00 0.00 91 1015.0
20260831104837 57 326 0.0 0.0 0.00 0.00 0.00 90 1015.0
20260831104333 57 358 4.0 5.0 0.00 0.00 0.00 91 1015.0
20260831103832 57 24 2.0 2.0 0.00 0.00 0.00 90 1014.9
20260831103328 57 336 0.0 0.0 0.00 0.00 0.00 90 1015.2
20260831102823 57 340 0.0 0.0 0.00 0.00 0.00 90 1015.0
20260831102318 57 346 0.0 0.0 0.00 0.00 0.00 90 1015.1
20260831101814 57 330 0.0 0.0 0.00 0.00 0.00 90 1014.8
20260831101309 57 1 0.0 0.0 0.00 0.00 0.00 90 1015.3
20260831100805 57 336 0.0 1.0 0.00 0.00 0.00 90 1015.6
20260831100301 57 329 1.0 1.0 0.00 0.00 0.00 89 1015.5
20260831095800 57 333 0.0 0.0 0.00 0.00 0.00 89 1015.6
20260831095254 57 337 0.0 0.0 0.00 0.00 0.00 89 1015.6
20260831094749 57 337 0.0 0.0 0.00 0.00 0.00 88 1015.5
20260831094244 57 342 1.0 2.0 0.00 0.00 0.00 88 1015.6
20260831093741 57 1 4.0 5.0 0.00 0.00 0.00 88 1015.5
20260831093240 57 5 1.0 2.0 0.00 0.00 0.00 88 1015.8
20260831092737 57 328 0.0 1.0 0.00 0.00 0.00 88 1015.9
20260831092233 57 323 1.0 2.0 0.00 0.00 0.00 88 1015.9
20260831091732 57 322 1.0 2.0 0.00 0.00 0.00 87 1015.8
20260831091228 57 305 0.0 0.0 0.00 0.00 0.00 87 1016.1
20260831090723 57 304 0.0 0.0 0.00 0.00 0.00 86 1015.9
20260831090220 57 305 0.0 0.0 0.00 0.00 0.00 86 1016.0
20260831085715 57 322 0.0 0.0 0.00 0.00 0.00 86 1015.8
20260831085210 58 321 0.0 0.0 0.00 0.00 0.00 85 1016.0
20260831084705 58 320 0.0 0.0 0.00 0.00 0.00 85 1016.0
20260831084201 57 321 0.0 1.0 0.00 0.00 0.00 85 1015.9
20260831083657 57 321 0.0 0.0 0.00 0.00 0.00 84 1015.8
20260831083152 57 322 0.0 0.0 0.00 0.00 0.00 84 1015.8
20260831082650 58 322 0.0 0.0 0.00 0.00 0.00 83 1016.3
20260831082146 58 342 0.0 0.0 0.00 0.00 0.00 83 1016.3
20260831081641 58 320 0.0 0.0 0.00 0.00 0.00 83 1016.3
20260831081137 58 322 0.0 0.0 0.00 0.00 0.00 83 1016.3
20260831080633 58 320 0.0 0.0 0.00 0.00 0.00 83 1016.6
20260831080127 58 331 0.0 0.0 0.00 0.00 0.00 83 1016.4
20260831075624 57 306 0.0 0.0 0.00 0.00 0.00 83 1016.6
20260831075119 57 306 0.0 0.0 0.00 0.00 0.00 83 1016.6
20260831074618 58 306 0.0 0.0 0.00 0.00 0.00 83 1016.4
20260831074113 58 306 0.0 0.0 0.00 0.00 0.00 82 1016.4
20260831073608 58 306 0.0 0.0 0.00 0.00 0.00 82 1016.3
20260831073107 58 306 0.0 1.0 0.00 0.00 0.00 82 1016.2
20260831072602 58 306 0.0 1.0 0.00 0.00 0.00 82 1016.4